Location: Philomena
(55.1756°N, 111.6233°W)
Time: 10:28:06
(UTC+00:00)

PCSat - Pass Details

Date: 08 December 2023
Orbit: 784 x 791 km, 67.0° (Epoch: 23 February)

Event Time Altitude Azimuth Distance (km) Brightness Sun altitude
Exits shadow 14:19:01 13° 294° (WNW) 2,124 11.1 -10.3°
Maximum altitude 14:22:44 26° 345° (NNW) 1,515 10.7 -9.8°
Drops below altitude 10° 14:27:16 10° 42° (NE) 2,366 12.2 -9.3°
Sets 14:30:05 0° 55° (NE) 3,297 13.2 -8.9°
